Tracking 35334 objects as of 12-Sep-2026
HD Live streaming from Space Station
objects crossing your sky now

IKONOS 2 DEB


IKONOS 2 DEB is no longer on orbit


NORAD ID: 26730
Int'l Code: 1999-051D
Launch date: September 24, 1999
Source: United States (US)
Launch site: AIR FORCE WESTERN TEST RANGE (AFWTR)
Decay date: 2001-04-11

Note: This is SATELLITE DEBRIS
Your satellite tracking list
Your tracking list is empty




NASA's NSSDC Master Catalog

Two Line Element Set (TLE):
1 26730U 99051D   01100.44095046  .23630633  00000-0  19227+0 0  9992
2 26730 098.1515 175.6029 0040100 317.2643 042.5497 15.62952664  2931
Source of the keplerian elements: AFSPC